St. Francis, KS

3:24 AM CDT on May 23, 2017 (GMT -0500)
Cheyenne County Municipal

Weather History for KSYF - June, 2013

Change the Weather History Date:

Sunday, June 2, 2013

  Actual Average Record
Temperature  
Mean Temperature 61 °F -  
Max Temperature 83 °F 79 °F 88 °F (2015)
Min Temperature 40 °F 50 °F 40 °F (2013)
Degree Days  
Heating Degree Days 4    
Growing Degree Days 11 (Base 50)    
Moisture  
Dew Point 39 °F    
Average Humidity 49    
Maximum Humidity 90    
Minimum Humidity 18    
Precipitation  
Precipitation 0.00 in - - ()
Sea Level Pressure  
Sea Level Pressure 30.07 in    
Wind  
Wind Speed 9 mph (South)    
Max Wind Speed 26 mph    
Max Gust Speed 33 mph    
Visibility 10 miles    
Events      
Averages and records for this station are not official NWS values.
T = Trace of Precipitation, MM = Missing Value Source: NWS Daily Summary

Daily Weather History Graph

Daily Weather History Graph

Search for Another Location

Airport or City:

Trip Planner

Search our weather history database for the weather conditions in past years. The results will help you decide how hot, cold, wet, or windy it might be!

Date:

Astronomy

Jun. 02, 2013 Rise Set
Actual Time 6:20 AM CDT 9:10 PM CDT
Civil Twilight 5:48 AM CDT 9:42 PM CDT
Nautical Twilight 5:08 AM CDT 10:22 PM CDT
Astronomical Twilight 4:22 AM CDT 11:08 PM CDT
Moon 2:47 AM CDT (6/2) 3:43 PM CDT (6/2)
Length of Visible Light 15h 53m
Length of Day
14h 49m
Waning Crescent, 30% of the Moon is Illuminated
Jun 2
Waning Crescent
Jun 8
New
Jun 16
First Quarter
Jun 23
Full
Jun 29
Last Quarter

Hourly Weather History & Observations

Time (CDT) Temp. Windchill Dew Point Humidity Pressure Visibility Wind Dir Wind Speed Gust Speed Precip Events Conditions
12:15 AM 48.9 °F - 40.8 °F 74% 30.20 in 10.0 mi SW 4.6 mph - N/A   Clear
12:35 AM 48.4 °F - 41.0 °F 76% 30.20 in 10.0 mi Calm Calm - N/A   Clear
12:55 AM 53.6 °F - 40.5 °F 61% 30.20 in 10.0 mi Calm Calm - N/A   Clear
1:15 AM 50.0 °F - 40.5 °F 70% 30.20 in 10.0 mi Calm Calm - N/A   Clear
1:35 AM 46.6 °F - 40.1 °F 78% 30.20 in 10.0 mi WSW 4.6 mph - N/A   Clear
1:55 AM 47.3 °F - 40.1 °F 76% 30.20 in 10.0 mi West 3.5 mph - N/A   Clear
2:15 AM 46.8 °F - 39.9 °F 77% 30.20 in 10.0 mi WSW 4.6 mph - N/A   Clear
2:35 AM 45.3 °F 42.3 °F 39.4 °F 80% 30.20 in 10.0 mi SW 5.8 mph - N/A   Clear
2:55 AM 45.1 °F 43.7 °F 39.6 °F 81% 30.19 in 10.0 mi SSW 3.5 mph - N/A   Clear
3:15 AM 46.6 °F - 40.3 °F 79% 30.19 in 10.0 mi WSW 3.5 mph - N/A   Clear
3:35 AM 44.6 °F 41.4 °F 39.6 °F 82% 30.20 in 10.0 mi SW 5.8 mph - N/A   Clear
3:55 AM 43.7 °F 40.3 °F 38.5 °F 82% 30.19 in 10.0 mi SW 5.8 mph - N/A   Clear
4:15 AM 41.4 °F 38.4 °F 37.8 °F 87% 30.19 in 10.0 mi WSW 4.6 mph - N/A   Clear
4:35 AM 41.2 °F 36.0 °F 38.1 °F 89% 30.19 in 10.0 mi WSW 8.1 mph - N/A   Clear
4:55 AM 41.9 °F 38.2 °F 38.3 °F 87% 30.19 in 10.0 mi WSW 5.8 mph - N/A   Clear
5:15 AM 42.1 °F 37.7 °F 38.1 °F 86% 30.19 in 10.0 mi SW 6.9 mph - N/A   Clear
5:35 AM 41.9 °F - 38.8 °F 89% 30.19 in 10.0 mi Calm Calm - N/A   Clear
5:55 AM 40.6 °F - 37.4 °F 88% 30.18 in 10.0 mi Calm Calm - N/A   Clear
6:15 AM 41.0 °F 37.1 °F 37.6 °F 88% 30.19 in 10.0 mi SW 5.8 mph - N/A   Clear
6:35 AM 40.1 °F 35.3 °F 37.4 °F 90% 30.19 in 10.0 mi WSW 6.9 mph - N/A   Clear
6:55 AM 41.0 °F 36.4 °F 38.1 °F 89% 30.19 in 10.0 mi SW 6.9 mph - N/A   Clear
7:15 AM 43.2 °F 39.0 °F 39.4 °F 86% 30.19 in 10.0 mi SW 6.9 mph - N/A   Clear
7:35 AM 44.8 °F 41.6 °F 40.1 °F 84% 30.19 in 10.0 mi SW 5.8 mph - N/A   Clear
7:55 AM 46.9 °F - 41.7 °F 82% 30.18 in 10.0 mi SW 4.6 mph - N/A   Clear
8:15 AM 49.3 °F - 42.6 °F 78% 30.18 in 10.0 mi Calm Calm - N/A   Clear
8:35 AM 52.9 °F - 44.1 °F 72% 30.18 in 10.0 mi Calm Calm - N/A   Clear
8:55 AM 55.2 °F - 44.6 °F 67% 30.18 in 10.0 mi Calm Calm - N/A   Clear
9:15 AM 59.5 °F - 41.5 °F 51% 30.18 in 10.0 mi SSE 8.1 mph - N/A   Clear
9:35 AM 61.3 °F - 41.0 °F 47% 30.17 in 10.0 mi SE 8.1 mph - N/A   Clear
9:55 AM 63.0 °F - 41.4 °F 45% 30.17 in 10.0 mi South 8.1 mph - N/A   Clear
10:15 AM 64.6 °F - 40.5 °F 41% 30.15 in 10.0 mi SSE 10.4 mph - N/A   Clear
10:35 AM 66.4 °F - 40.8 °F 39% 30.15 in 10.0 mi SSE 9.2 mph 19.6 mph N/A   Clear
10:55 AM 67.5 °F - 40.3 °F 37% 30.14 in 10.0 mi SSE 11.5 mph 17.3 mph N/A   Clear
11:15 AM 69.1 °F - 39.9 °F 35% 30.13 in 10.0 mi South 10.4 mph 17.3 mph N/A   Clear
11:35 AM 71.2 °F - 39.4 °F 31% 30.12 in 10.0 mi SSE 10.4 mph 16.1 mph N/A   Clear
11:55 AM 71.2 °F - 39.4 °F 31% 30.11 in 10.0 mi SSE 12.7 mph 18.4 mph N/A   Clear
12:15 PM 72.7 °F - 38.3 °F 29% 30.10 in 10.0 mi South 11.5 mph 21.9 mph N/A   Clear
12:35 PM 74.7 °F - 38.3 °F 27% 30.09 in 10.0 mi South 13.8 mph 19.6 mph N/A   Clear
12:55 PM 74.8 °F - 36.5 °F 25% 30.08 in 10.0 mi SSE 12.7 mph 17.3 mph N/A   Clear
1:15 PM 75.6 °F - 35.6 °F 23% 30.07 in 10.0 mi SSE 13.8 mph 20.7 mph N/A   Clear
1:35 PM 76.3 °F - 35.2 °F 23% 30.06 in 10.0 mi SSE 12.7 mph 21.9 mph N/A   Clear
1:55 PM 77.5 °F - 34.5 °F 21% 30.05 in 10.0 mi South 11.5 mph - N/A   Clear
2:15 PM 79.0 °F - 35.6 °F 21% 30.04 in 10.0 mi South 12.7 mph 20.7 mph N/A   Clear
2:35 PM 79.2 °F - 35.1 °F 20% 30.04 in 10.0 mi SSE 13.8 mph 24.2 mph N/A   Clear
2:55 PM 79.5 °F - 35.2 °F 20% 30.03 in 10.0 mi South 13.8 mph 25.3 mph N/A   Clear
3:15 PM 81.1 °F - 35.8 °F 20% 30.02 in 10.0 mi SSE 16.1 mph 21.9 mph N/A   Clear
3:35 PM 81.0 °F - 35.2 °F 19% 30.01 in 10.0 mi SE 15.0 mph 19.6 mph N/A   Clear
3:55 PM 81.7 °F - 35.1 °F 19% 30.00 in 10.0 mi South 19.6 mph 28.8 mph N/A   Clear
4:15 PM 81.9 °F - 35.1 °F 19% 29.98 in 10.0 mi SE 17.3 mph 27.6 mph N/A   Clear
4:35 PM 82.6 °F - 35.1 °F 18% 29.97 in 10.0 mi South 20.7 mph 28.8 mph N/A   Clear
4:55 PM 82.9 °F - 34.5 °F 18% 29.96 in 10.0 mi SSE 17.3 mph 26.5 mph N/A   Clear
5:15 PM 82.9 °F - 35.6 °F 18% 29.95 in 10.0 mi South 16.1 mph 26.5 mph N/A   Clear
5:35 PM 82.6 °F - 35.1 °F 18% 29.94 in 10.0 mi SE 23.0 mph - N/A   Clear
5:55 PM 82.4 °F - 35.6 °F 19% 29.93 in 10.0 mi SSE 20.7 mph 25.3 mph N/A   Clear
6:15 PM 82.0 °F - 36.0 °F 19% 29.92 in 10.0 mi SE 19.6 mph 27.6 mph N/A   Clear
6:35 PM 82.2 °F - 35.8 °F 19% 29.92 in 10.0 mi SE 21.9 mph 27.6 mph N/A   Clear
6:55 PM 81.9 °F - 36.1 °F 19% 29.91 in 10.0 mi SE 21.9 mph 29.9 mph N/A   Clear
7:15 PM 81.1 °F - 36.7 °F 20% 29.90 in 10.0 mi SE 18.4 mph 27.6 mph N/A   Clear
7:35 PM 80.4 °F - 36.1 °F 20% 29.90 in 10.0 mi SE 20.7 mph 28.8 mph N/A   Clear
7:55 PM 79.5 °F - 37.0 °F 22% 29.89 in 10.0 mi SE 18.4 mph - N/A   Clear
8:15 PM 77.5 °F - 38.7 °F 25% 29.88 in 10.0 mi SE 23.0 mph 27.6 mph N/A   Clear
8:35 PM 76.1 °F - 38.7 °F 26% 29.88 in 10.0 mi SE 21.9 mph 27.6 mph N/A   Clear
8:55 PM 74.3 °F - 39.4 °F 28% 29.89 in 10.0 mi SE 20.7 mph 27.6 mph N/A   Clear
9:15 PM 70.5 °F - 42.8 °F 37% 29.89 in 10.0 mi SE 24.2 mph 33.4 mph N/A   Clear
9:35 PM 69.1 °F - 43.0 °F 39% 29.89 in 10.0 mi SE 24.2 mph 29.9 mph N/A   Clear
9:55 PM 67.8 °F - 43.2 °F 41% 29.89 in 10.0 mi SE 23.0 mph 28.8 mph N/A   Clear
10:15 PM 66.6 °F - 43.7 °F 44% 29.90 in 10.0 mi SE 24.2 mph 31.1 mph N/A   Clear
10:35 PM 65.5 °F - 44.2 °F 46% 29.90 in 10.0 mi SE 20.7 mph 32.2 mph N/A   Clear
10:55 PM 64.6 °F - 44.2 °F 48% 29.91 in 10.0 mi SE 26.5 mph 32.2 mph N/A   Clear
11:15 PM 63.9 °F - 44.2 °F 49% 29.91 in 10.0 mi SE 23.0 mph 32.2 mph N/A   Clear
11:35 PM 63.0 °F - 44.6 °F 51% 29.90 in 10.0 mi SE 25.3 mph 32.2 mph N/A   Clear
11:55 PM 62.1 °F - 45.0 °F 53% 29.89 in 10.0 mi SE 25.3 mph 29.9 mph N/A   Clear